EA3KZ-1 Weather Reports


time (UTC)temp
F
wind
direction
speed
knots
gust
knots
rain 1hr
in
rain 24hr
in
rain mn
in
humidity
%
barometer
mb
20260901183538 76 183 2.6 3.5 0.00 0.00 0.00 72 1014.8
20260901182535 76 158 2.6 5.2 0.00 0.00 0.00 72 1014.7
20260901181533 77 145 1.7 3.5 0.00 0.00 0.00 71 1014.9
20260901180530 77 127 1.7 3.5 0.00 0.00 0.00 70 1015.1
20260901175527 77 187 2.6 6.1 0.00 0.00 0.00 70 1015.2
20260901174525 77 129 2.6 7.0 0.00 0.00 0.00 70 1015.5
20260901173522 77 164 2.6 7.0 0.00 0.00 0.00 69 1015.5
20260901172520 78 144 3.5 9.6 0.00 0.00 0.00 68 1015.6
20260901171517 78 125 5.2 11.3 0.00 0.00 0.00 68 1015.8
20260901170515 78 143 3.5 7.0 0.00 0.00 0.00 67 1015.6
20260901165612 78 72 3.5 7.8 0.00 0.00 0.00 67 1015.5
20260901164609 79 74 3.5 7.8 0.00 0.00 0.00 66 1015.5
20260901163607 79 109 2.6 7.0 0.00 0.00 0.00 66 1015.7
20260901162604 79 113 3.5 7.8 0.00 0.00 0.00 66 1015.8
20260901161602 80 118 1.7 7.0 0.00 0.00 0.00 65 1015.9
20260901160559 81 104 3.5 9.6 0.00 0.00 0.00 64 1015.8
20260901155557 82 75 2.6 5.2 0.00 0.00 0.00 62 1015.6
20260901154554 82 96 2.6 7.0 0.00 0.00 0.00 60 1015.6
20260901153551 82 111 2.6 7.0 0.00 0.00 0.00 61 1015.7
20260901152549 82 95 3.5 7.8 0.00 0.00 0.00 62 1015.9
20260901151546 81 123 3.5 9.6 0.00 0.00 0.00 63 1015.9
20260901150544 80 85 3.5 7.0 0.00 0.00 0.00 64 1015.9
20260901145541 80 109 5.2 11.3 0.00 0.00 0.00 64 1016.3
20260901144538 81 95 2.6 7.8 0.00 0.00 0.00 59 1016.0
20260901143536 81 119 2.6 5.2 0.00 0.00 0.00 59 1016.0
20260901142533 81 114 4.3 9.6 0.00 0.00 0.00 59 1016.3
20260901141531 82 114 2.6 7.0 0.00 0.00 0.00 58 1016.1
20260901140528 81 94 2.6 6.1 0.00 0.00 0.00 59 1015.8
20260901135525 81 129 3.5 9.6 0.00 0.00 0.00 59 1016.3
20260901134523 81 125 2.6 6.1 0.00 0.00 0.00 60 1016.3
20260901133521 81 176 3.5 7.0 0.00 0.00 0.00 60 1016.4
20260901132518 81 113 2.6 5.2 0.00 0.00 0.00 61 1016.6
20260901131515 83 181 4.3 9.6 0.00 0.00 0.00 58 1016.7
20260901130613 83 122 4.3 7.8 0.00 0.00 0.00 60 1016.7
20260901125610 83 61 2.6 11.3 0.00 0.00 0.00 61 1016.9
20260901124607 83 171 2.6 6.1 0.00 0.00 0.00 62 1016.8
20260901123605 82 88 3.5 9.6 0.00 0.00 0.00 63 1016.8
20260901122602 82 77 2.6 6.1 0.00 0.00 0.00 62 1017.0
20260901121600 82 74 4.3 9.6 0.00 0.00 0.00 62 1017.0
20260901120557 83 180 2.6 7.8 0.00 0.00 0.00 61 1017.1
20260901115554 82 110 2.6 7.0 0.00 0.00 0.00 62 1017.1
20260901114552 81 139 4.3 9.6 0.00 0.00 0.00 63 1017.1
20260901113549 82 98 3.5 9.6 0.00 0.00 0.00 61 1017.1
20260901112547 83 83 2.6 9.6 0.00 0.00 0.00 58 1017.2
20260901111544 82 121 3.5 7.8 0.00 0.00 0.00 59 1017.3
20260901110541 82 95 3.5 9.6 0.00 0.00 0.00 58 1017.3
20260901105539 84 127 2.6 6.1 0.00 0.00 0.00 56 1017.3
20260901104536 83 127 1.7 7.0 0.00 0.00 0.00 57 1017.2
20260901103534 82 111 2.6 7.0 0.00 0.00 0.00 56 1017.4
20260901102531 83 109 3.5 7.8 0.00 0.00 0.00 55 1017.4
20260901101529 82 98 2.6 7.0 0.00 0.00 0.00 56 1017.5
20260901100526 82 150 1.7 5.2 0.00 0.00 0.00 59 1017.4
20260901095524 83 167 1.7 3.5 0.00 0.00 0.00 57 1017.5
20260901094521 81 94 3.5 7.8 0.00 0.00 0.00 62 1017.4
20260901093518 81 130 3.5 9.6 0.00 0.00 0.00 61 1017.2
20260901092516 82 106 1.7 7.0 0.00 0.00 0.00 58 1017.1
20260901091613 80 198 1.7 3.5 0.00 0.00 0.00 61 1017.0
20260901090611 81 78 2.6 6.1 0.00 0.00 0.00 60 1016.9
20260901085608 81 105 1.7 3.5 0.00 0.00 0.00 60 1016.7
20260901084605 81 102 1.7 3.5 0.00 0.00 0.00 61 1016.7
20260901083603 79 128 0.9 1.7 0.00 0.00 0.00 62 1016.7
20260901082600 79 131 1.7 3.5 0.00 0.00 0.00 63 1016.6
20260901081558 78 113 1.7 3.5 0.00 0.00 0.00 64 1016.7
20260901080555 79 208 0.9 1.7 0.00 0.00 0.00 63 1016.5
20260901075552 78 140 0.9 1.7 0.00 0.00 0.00 65 1016.7
20260901074550 77 131 0.9 3.5 0.00 0.00 0.00 65 1016.6
20260901073547 76 202 2.6 3.5 0.00 0.00 0.00 66 1016.7
20260901072545 76 220 0.0 1.7 0.00 0.00 0.00 68 1016.6
20260901071542 75 221 2.6 5.2 0.00 0.00 0.00 71 1016.5
20260901070539 75 258 1.7 3.5 0.00 0.00 0.00 72 1016.8
20260901065537 74 228 1.7 3.5 0.00 0.00 0.00 72 1016.8
20260901064534 74 235 0.9 3.5 0.00 0.00 0.00 71 1016.8
20260901063532 74 226 0.9 1.7 0.00 0.00 0.00 71 1016.7
20260901062529 73 244 0.9 1.7 0.00 0.00 0.00 72 1016.7
20260901061526 72 258 0.9 1.7 0.00 0.00 0.00 74 1016.6
20260901060524 71 267 0.9 1.7 0.00 0.00 0.00 77 1016.7
20260901055521 71 270 0.9 3.5 0.00 0.00 0.00 78 1016.4
20260901054519 70 255 0.9 1.7 0.00 0.00 0.00 79 1016.5
20260901053516 70 251 1.7 3.5 0.00 0.00 0.00 80 1016.5
20260901052614 69 227 2.6 3.5 0.00 0.00 0.00 81 1016.6
20260901051611 69 234 1.7 3.5 0.00 0.00 0.00 81 1016.4
20260901050608 70 234 1.7 3.5 0.00 0.00 0.00 81 1016.5
20260901045606 70 248 1.7 3.5 0.00 0.00 0.00 81 1016.5
20260901044603 70 243 1.7 3.5 0.00 0.00 0.00 81 1016.5
20260901043601 70 238 0.9 1.7 0.00 0.00 0.00 81 1016.5
20260901042558 70 248 0.9 1.7 0.00 0.00 0.00 81 1016.6
20260901041556 70 252 0.9 3.5 0.00 0.00 0.00 81 1016.6
20260901040553 70 242 0.0 1.7 0.00 0.00 0.00 82 1016.6
20260901035550 70 253 0.9 1.7 0.00 0.00 0.00 82 1016.5
20260901034548 71 237 0.9 1.7 0.00 0.00 0.00 82 1016.8
20260901033545 71 0.0 1.7 0.00 0.00 0.00 83 1016.8
20260901032543 71 258 0.9 3.5 0.00 0.00 0.00 83 1016.7
20260901031540 71 240 0.9 1.7 0.00 0.00 0.00 84 1016.8
20260901030537 71 180 0.0 1.7 0.00 0.00 0.00 85 1016.8
20260901025535 72 0.0 1.7 0.00 0.00 0.00 85 1017.0
20260901024532 72 248 0.9 1.7 0.00 0.00 0.00 85 1016.9
20260901023530 72 245 0.9 1.7 0.00 0.00 0.00 85 1017.2
20260901022527 72 227 0.9 1.7 0.00 0.00 0.00 85 1017.3
20260901021524 72 238 0.9 1.7 0.00 0.00 0.00 85 1017.5
20260901020522 72 212 0.9 3.5 0.00 0.00 0.00 85 1017.5
20260901015519 73 167 0.9 1.7 0.00 0.00 0.00 85 1017.5
20260901014517 73 158 0.9 1.7 0.00 0.00 0.00 83 1017.7
20260901013614 73 114 0.9 3.5 0.00 0.00 0.00 83 1017.6
20260901012612 73 94 0.9 3.5 0.00 0.00 0.00 83 1017.6
20260901011609 73 108 0.9 1.7 0.00 0.00 0.00 83 1017.6
20260901010607 73 98 0.9 3.5 0.00 0.00 0.00 82 1017.6
20260901005604 73 96 1.7 3.5 0.00 0.00 0.00 82 1017.8
20260901004601 74 128 0.0 1.7 0.00 0.00 0.00 82 1017.8
20260901003559 74 75 0.9 1.7 0.00 0.00 0.00 82 1017.8
20260901002556 74 107 0.9 3.5 0.00 0.00 0.00 82 1017.8
20260901001554 74 135 0.9 1.7 0.00 0.00 0.00 81 1017.8
20260901000551 74 0.0 1.7 0.00 0.00 0.00 82 1017.9
20260831235548 73 135 0.0 1.7 0.00 0.00 0.00 83 1018.0
20260831234546 74 133 0.9 1.7 0.00 0.00 0.00 85 1017.9
20260831233543 74 122 0.0 3.5 0.00 0.00 0.00 85 1017.9
20260831232541 74 192 0.9 3.5 0.00 0.00 0.00 86 1017.8
20260831231538 74 119 0.9 1.7 0.00 0.00 0.00 86 1017.7
20260831230536 74 138 0.9 3.5 0.00 0.00 0.00 86 1017.6
20260831225533 73 357 1.7 5.2 0.00 0.00 0.00 87 1017.7
20260831224530 74 28 2.6 5.2 0.00 0.00 0.00 86 1017.8
20260831223528 74 3 0.9 3.5 0.00 0.00 0.00 86 1017.7
20260831222525 74 158 0.9 3.5 0.00 0.00 0.00 86 1017.7
20260831221523 74 36 0.9 3.5 0.00 0.00 0.00 86 1017.7
20260831220520 74 145 0.9 3.5 0.00 0.00 0.00 85 1017.8
20260831215517 74 27 1.7 5.2 0.00 0.00 0.00 85 1017.7
20260831214515 74 85 0.9 3.5 0.00 0.00 0.00 84 1017.5
20260831213612 74 102 1.7 7.0 0.00 0.00 0.00 84 1017.5
20260831212610 74 117 1.7 3.5 0.00 0.00 0.00 84 1017.5
20260831211607 74 107 2.6 6.1 0.00 0.00 0.00 84 1017.4
20260831210605 75 116 0.9 3.5 0.00 0.00 0.00 82 1017.3
20260831205602 75 82 0.9 3.5 0.00 0.00 0.00 81 1017.4
20260831204559 75 146 0.9 5.2 0.00 0.00 0.00 80 1017.2
20260831203557 75 42 1.7 5.2 0.00 0.00 0.00 79 1017.3
20260831202554 75 169 2.6 7.0 0.00 0.00 0.00 77 1017.0
20260831201552 76 309 0.9 3.5 0.00 0.00 0.00 76 1017.1
20260831200549 76 80 1.7 6.1 0.00 0.00 0.00 76 1017.0
20260831195546 76 120 0.9 3.5 0.00 0.00 0.00 74 1016.9
20260831194544 76 128 1.7 3.5 0.00 0.00 0.00 75 1016.6
20260831193541 76 104 1.7 6.1 0.00 0.00 0.00 75 1016.5
20260831192539 76 112 2.6 7.0 0.00 0.00 0.00 74 1016.5
20260831191536 76 68 2.6 6.1 0.00 0.00 0.00 73 1016.0
20260831190534 76 114 3.5 7.8 0.00 0.00 0.00 73 1015.9
20260831185531 76 103 3.5 7.0 0.00 0.00 0.00 72 1016.0
20260831184528 77 103 1.7 7.0 0.00 0.00 0.00 71 1015.8